| time (UTC) | temp F | wind direction | speed knots | gust knots | rain 1hr in | rain 24hr in | rain mn in | humidity % | barometer mb |
| 20260510105306 | 0 | 23 | 0.0 | 0.0 | 0.00 | 0.00 | 0.00 | 1077.2 | |
| 20260510104533 | 0 | 179 | 0.0 | 0.0 | 0.00 | 0.00 | 0.00 | 1077.2 | |
| 20260510104024 | 0 | 137 | 0.0 | 0.0 | 0.00 | 0.00 | 0.00 | 1077.2 | |
| 20260510103438 | 0 | 123 | 0.0 | 0.0 | 0.00 | 0.00 | 0.00 | 1077.3 | |
| 20260510102935 | 0 | 123 | 0.0 | 0.0 | 0.00 | 0.00 | 0.00 | 1077.2 | |
| 20260510102707 | 0 | 123 | 0.0 | 0.0 | 0.00 | 0.00 | 0.00 | 1077.3 | |
| 20260510102200 | 0 | 90 | 0.0 | 0.0 | 0.00 | 0.00 | 0.00 | 1077.2 | |
| 20260510101420 | 0 | 91 | 0.0 | 0.0 | 0.00 | 0.00 | 0.00 | 1077.2 | |
| 20260510100919 | 0 | 91 | 0.0 | 0.0 | 0.00 | 0.00 | 0.00 | 1077.1 | |
| 20260510100343 | 0 | 91 | 0.0 | 0.0 | 0.00 | 0.00 | 0.00 | 1077.1 | |
| 20260510095800 | 0 | 91 | 0.0 | 0.0 | 0.00 | 0.00 | 0.00 | 1077.1 | |
| 20260510095239 | 0 | 91 | 0.0 | 0.0 | 0.00 | 0.00 | 0.00 | 1077.1 | |
| 20260510094737 | 0 | 91 | 0.0 | 0.0 | 0.00 | 0.00 | 0.00 | 1077.1 | |
| 20260510093731 | 0 | 91 | 0.0 | 0.0 | 0.00 | 0.00 | 0.00 | 1076.9 | |
| 20260510093231 | 0 | 64 | 0.0 | 0.0 | 0.00 | 0.00 | 0.00 | 1076.9 | |
| 20260510092718 | 0 | 64 | 0.0 | 0.0 | 0.00 | 0.00 | 0.00 | 1076.9 | |
| 20260510092449 | 0 | 63 | 0.0 | 0.0 | 0.00 | 0.00 | 0.00 | 1076.9 | |
| 20260510091709 | 0 | 64 | 0.0 | 0.0 | 0.00 | 0.00 | 0.00 | 1076.8 | |
| 20260510091405 | 0 | 64 | 0.0 | 0.0 | 0.00 | 0.00 | 0.00 | 1076.7 | |
| 20260510090633 | 0 | 64 | 0.0 | 0.0 | 0.00 | 0.00 | 0.00 | 1076.7 | |
| 20260510090133 | 0 | 64 | 0.0 | 0.0 | 0.00 | 0.00 | 0.00 | 1076.5 | |
| 20260510085612 | 0 | 64 | 0.0 | 0.0 | 0.00 | 0.00 | 0.00 | 1076.5 | |
| 20260510085110 | 0 | 64 | 0.0 | 0.0 | 0.00 | 0.00 | 0.00 | 1076.4 | |
| 20260510084536 | 0 | 64 | 0.0 | 0.0 | 0.00 | 0.00 | 0.00 | 1076.4 | |
| 20260510084032 | 0 | 64 | 0.0 | 0.0 | 0.00 | 0.00 | 0.00 | 1076.4 | |
| 20260510083524 | 0 | 64 | 0.0 | 0.0 | 0.00 | 0.00 | 0.00 | 1076.3 | |
| 20260510083023 | 0 | 64 | 0.0 | 0.0 | 0.00 | 0.00 | 0.00 | 1076.3 | |
| 20260510082439 | 0 | 64 | 0.0 | 0.0 | 0.00 | 0.00 | 0.00 | 1076.2 | |
| 20260510081932 | 0 | 64 | 0.0 | 0.0 | 0.00 | 0.00 | 0.00 | 1076.1 | |
| 20260510081423 | 0 | 64 | 0.0 | 0.0 | 0.00 | 0.00 | 0.00 | 1076.1 | |
| 20260510081102 | 0 | 64 | 0.0 | 0.0 | 0.00 | 0.00 | 0.00 | 1076.1 | |
| 20260510080333 | 0 | 64 | 0.0 | 0.0 | 0.00 | 0.00 | 0.00 | 1076.0 | |
| 20260510075831 | 0 | 64 | 0.0 | 0.0 | 0.00 | 0.00 | 0.00 | 1075.9 | |
| 20260510075329 | 0 | 64 | 0.0 | 0.0 | 0.00 | 0.00 | 0.00 | 1075.9 | |
| 20260510074831 | 0 | 64 | 0.0 | 0.0 | 0.00 | 0.00 | 0.00 | 1075.8 | |
| 20260510074239 | 0 | 64 | 0.0 | 0.0 | 0.00 | 0.00 | 0.00 | 1075.8 | |
| 20260510073736 | 0 | 64 | 0.0 | 0.0 | 0.00 | 0.00 | 0.00 | 1075.8 | |
| 20260510073231 | 0 | 63 | 0.0 | 0.0 | 0.00 | 0.00 | 0.00 | 1075.8 | |
| 20260510072716 | 0 | 63 | 0.0 | 0.0 | 0.00 | 0.00 | 0.00 | 1075.8 | |
| 20260510072204 | 0 | 63 | 0.0 | 0.0 | 0.00 | 0.00 | 0.00 | 1075.7 | |
| 20260510071638 | 0 | 63 | 0.0 | 0.0 | 0.00 | 0.00 | 0.00 | 1075.7 | |
| 20260510071130 | 0 | 64 | 0.0 | 0.0 | 0.00 | 0.00 | 0.00 | 1075.6 | |
| 20260510070610 | 0 | 64 | 0.0 | 0.0 | 0.00 | 0.00 | 0.00 | 1075.6 | |
| 20260510070049 | 0 | 64 | 0.0 | 0.0 | 0.00 | 0.00 | 0.00 | 1075.7 | |
| 20260510065533 | 0 | 64 | 0.0 | 0.0 | 0.00 | 0.00 | 0.00 | 1075.7 | |
| 20260510065031 | 0 | 64 | 0.0 | 0.0 | 0.00 | 0.00 | 0.00 | 1075.7 | |
| 20260510064525 | 0 | 64 | 0.0 | 0.0 | 0.00 | 0.00 | 0.00 | 1075.6 | |
| 20260510064253 | 0 | 347 | 0.0 | 0.0 | 0.00 | 0.00 | 0.00 | 1075.5 | |
| 20260510063521 | 0 | 68 | 0.0 | 0.0 | 0.00 | 0.00 | 0.00 | 1075.4 | |
| 20260510063017 | 0 | 66 | 0.0 | 0.0 | 0.00 | 0.00 | 0.00 | 1075.4 | |
| 20260510062732 | 0 | 64 | 0.0 | 0.0 | 0.00 | 0.00 | 0.00 | 1075.4 | |
| 20260510061935 | 0 | 68 | 0.0 | 0.0 | 0.00 | 0.00 | 0.00 | 1075.4 | |
| 20260510061431 | 0 | 71 | 0.0 | 0.0 | 0.00 | 0.00 | 0.00 | 1075.4 | |
| 20260510060425 | 0 | 74 | 0.0 | 0.0 | 0.00 | 0.00 | 0.00 | 1075.5 | |
| 20260510055919 | 0 | 75 | 0.0 | 0.0 | 0.00 | 0.00 | 0.00 | 1075.4 | |
| 20260510055344 | 0 | 77 | 0.0 | 0.0 | 0.00 | 0.00 | 0.00 | 1075.5 | |
| 20260510054834 | 0 | 75 | 0.0 | 0.0 | 0.00 | 0.00 | 0.00 | 1075.5 | |
| 20260510054332 | 0 | 74 | 0.0 | 0.0 | 0.00 | 0.00 | 0.00 | 1075.5 | |
| 20260510053825 | 0 | 347 | 0.0 | 0.0 | 0.00 | 0.00 | 0.00 | 1075.4 | |
| 20260510053323 | 0 | 347 | 0.0 | 0.0 | 0.00 | 0.00 | 0.00 | 1075.4 | |
| 20260510052745 | 0 | 92 | 0.0 | 0.0 | 0.00 | 0.00 | 0.00 | 1075.4 | |
| 20260510052235 | 0 | 92 | 0.0 | 0.0 | 0.00 | 0.00 | 0.00 | 1075.4 | |
| 20260510051730 | 0 | 92 | 0.0 | 0.0 | 0.00 | 0.00 | 0.00 | 1075.3 | |
| 20260510051229 | 0 | 92 | 0.0 | 0.0 | 0.00 | 0.00 | 0.00 | 1075.3 | |
| 20260510050729 | 0 | 69 | 0.0 | 0.0 | 0.00 | 0.00 | 0.00 | 1075.3 | |
| 20260510050229 | 0 | 73 | 0.0 | 0.0 | 0.00 | 0.00 | 0.00 | 1075.3 | |
| 20260510045936 | 0 | 69 | 0.0 | 0.0 | 0.00 | 0.00 | 0.00 | 1075.4 | |
| 20260510045405 | 0 | 68 | 0.0 | 0.0 | 0.00 | 0.00 | 0.00 | 1075.4 | |
| 20260510044633 | 0 | 65 | 0.0 | 0.0 | 0.00 | 0.00 | 0.00 | 1075.5 | |
| 20260510044135 | 0 | 63 | 0.0 | 0.0 | 0.00 | 0.00 | 0.00 | 1075.5 | |
| 20260510043634 | 0 | 63 | 0.0 | 0.0 | 0.00 | 0.00 | 0.00 | 1075.5 | |
| 20260510043120 | 0 | 65 | 0.0 | 0.0 | 0.00 | 0.00 | 0.00 | 1075.5 | |
| 20260510042618 | 0 | 70 | 0.0 | 0.0 | 0.00 | 0.00 | 0.00 | 1075.6 | |
| 20260510042101 | 0 | 57 | 0.0 | 0.0 | 0.00 | 0.00 | 0.00 | 1075.6 | |
| 20260510041827 | 0 | 65 | 0.0 | 0.0 | 0.00 | 0.00 | 0.00 | 1075.6 | |
| 20260510041048 | 0 | 62 | 0.0 | 0.0 | 0.00 | 0.00 | 0.00 | 1075.7 | |
| 20260510040539 | 0 | 62 | 0.0 | 0.0 | 0.00 | 0.00 | 0.00 | 1075.6 | |
| 20260510040033 | 0 | 62 | 0.0 | 0.0 | 0.00 | 0.00 | 0.00 | 1075.7 | |
| 20260510035529 | 0 | 113 | 0.0 | 0.0 | 0.00 | 0.00 | 0.00 | 1075.7 | |
| 20260510035006 | 0 | 92 | 0.0 | 0.0 | 0.00 | 0.00 | 0.00 | 1075.8 | |
| 20260510034448 | 0 | 65 | 0.0 | 0.0 | 0.00 | 0.00 | 0.00 | 1075.8 | |
| 20260510033944 | 0 | 66 | 0.0 | 0.0 | 0.00 | 0.00 | 0.00 | 1075.9 | |
| 20260510033436 | 0 | 67 | 0.0 | 0.0 | 0.00 | 0.00 | 0.00 | 1075.8 | |
| 20260510032934 | 0 | 67 | 0.0 | 0.0 | 0.00 | 0.00 | 0.00 | 1075.8 | |
| 20260510032427 | 0 | 73 | 0.0 | 0.0 | 0.00 | 0.00 | 0.00 | 1075.8 | |
| 20260510032154 | 0 | 71 | 0.0 | 0.0 | 0.00 | 0.00 | 0.00 | 1075.9 | |
| 20260510031421 | 0 | 63 | 0.0 | 0.0 | 0.00 | 0.00 | 0.00 | 1075.9 | |
| 20260510030922 | 0 | 61 | 0.0 | 0.0 | 0.00 | 0.00 | 0.00 | 1076.0 | |
| 20260510030422 | 0 | 81 | 0.0 | 0.0 | 0.00 | 0.00 | 0.00 | 1076.0 | |
| 20260510025853 | 0 | 104 | 0.0 | 0.0 | 0.00 | 0.00 | 0.00 | 1076.1 | |
| 20260510025336 | 0 | 117 | 0.0 | 0.0 | 0.00 | 0.00 | 0.00 | 1076.2 | |
| 20260510024830 | 0 | 123 | 0.0 | 0.0 | 0.00 | 0.00 | 0.00 | 1076.4 | |
| 20260510024322 | 0 | 125 | 0.0 | 0.0 | 0.00 | 0.00 | 0.00 | 1076.4 | |
| 20260510023744 | 0 | 125 | 0.0 | 0.0 | 0.00 | 0.00 | 0.00 | 1076.4 | |
| 20260509163059 | 0 | 62 | 0.0 | 0.0 | 0.00 | 0.00 | 0.00 | 1075.4 | |
| 20260509162548 | 0 | 62 | 0.0 | 0.0 | 0.00 | 0.00 | 0.00 | 1075.4 | |
| 20260509162038 | 0 | 62 | 0.0 | 0.0 | 0.00 | 0.00 | 0.00 | 1075.4 | |
| 20260509161502 | 0 | 62 | 0.0 | 0.0 | 0.00 | 0.00 | 0.00 | 1075.5 | |
| 20260509160947 | 0 | 62 | 0.0 | 0.0 | 0.00 | 0.00 | 0.00 | 1075.6 | |
| 20260509160439 | 0 | 62 | 0.0 | 0.0 | 0.00 | 0.00 | 0.00 | 1075.6 | |
| 20260509155852 | 0 | 62 | 0.0 | 0.0 | 0.00 | 0.00 | 0.00 | 1075.6 | |
| 20260509155345 | 0 | 62 | 0.0 | 0.0 | 0.00 | 0.00 | 0.00 | 1075.7 | |
| 20260509154802 | 0 | 62 | 0.0 | 0.0 | 0.00 | 0.00 | 0.00 | 1075.6 | |
| 20260509154248 | 0 | 62 | 0.0 | 0.0 | 0.00 | 0.00 | 0.00 | 1075.7 | |
| 20260509153748 | 0 | 62 | 0.0 | 0.0 | 0.00 | 0.00 | 0.00 | 1075.6 | |
| 20260509153240 | 0 | 62 | 0.0 | 0.0 | 0.00 | 0.00 | 0.00 | 1075.7 | |
| 20260509152648 | 0 | 68 | 0.0 | 0.0 | 0.00 | 0.00 | 0.00 | 1075.7 | |
| 20260509152126 | 0 | 68 | 0.0 | 0.0 | 0.00 | 0.00 | 0.00 | 1075.7 | |
| 20260509151546 | 0 | 68 | 0.0 | 0.0 | 0.00 | 0.00 | 0.00 | 1075.8 | |
| 20260509151047 | 0 | 68 | 0.0 | 0.0 | 0.00 | 0.00 | 0.00 | 1075.8 | |
| 20260509150542 | 0 | 68 | 0.0 | 0.0 | 0.00 | 0.00 | 0.00 | 1075.8 | |
| 20260509145948 | 0 | 119 | 0.0 | 0.0 | 0.00 | 0.00 | 0.00 | 1075.7 | |
| 20260509145446 | 0 | 121 | 0.0 | 0.0 | 0.00 | 0.00 | 0.00 | 1075.8 | |
| 20260509144922 | 0 | 124 | 0.0 | 0.0 | 0.00 | 0.00 | 0.00 | 1075.8 | |
| 20260509144351 | 0 | 124 | 0.0 | 0.0 | 0.00 | 0.00 | 0.00 | 1075.8 | |
| 20260509143847 | 0 | 124 | 0.0 | 0.0 | 0.00 | 0.00 | 0.00 | 1075.8 | |
| 20260509143618 | 0 | 124 | 0.0 | 0.0 | 0.00 | 0.00 | 0.00 | 1075.8 | |
| 20260509142823 | 0 | 124 | 0.0 | 0.0 | 0.00 | 0.00 | 0.00 | 1075.8 | |
| 20260509142527 | 0 | 124 | 0.0 | 0.0 | 0.00 | 0.00 | 0.00 | 1075.9 | |
| 20260509141752 | 0 | 124 | 0.0 | 0.0 | 0.00 | 0.00 | 0.00 | 1075.8 | |
| 20260509141254 | 0 | 124 | 0.0 | 0.0 | 0.00 | 0.00 | 0.00 | 1075.8 | |
| 20260509140750 | 0 | 124 | 0.0 | 0.0 | 0.00 | 0.00 | 0.00 | 1075.9 | |
| 20260509140251 | 0 | 125 | 0.0 | 0.0 | 0.00 | 0.00 | 0.00 | 1075.8 | |
| 20260509135752 | 0 | 124 | 0.0 | 0.0 | 0.00 | 0.00 | 0.00 | 1075.9 | |
| 20260509135455 | 0 | 124 | 0.0 | 0.0 | 0.00 | 0.00 | 0.00 | 1075.9 | |
| 20260509134718 | 0 | 126 | 0.0 | 0.0 | 0.00 | 0.00 | 0.00 | 1075.9 | |
| 20260509134154 | 0 | 127 | 0.0 | 0.0 | 0.00 | 0.00 | 0.00 | 1076.0 | |
| 20260509133650 | 0 | 127 | 0.0 | 0.0 | 0.00 | 0.00 | 0.00 | 1075.9 | |
| 20260509133146 | 0 | 127 | 0.0 | 0.0 | 0.00 | 0.00 | 0.00 | 1076.0 | |
| 20260509132646 | 0 | 126 | 0.0 | 0.0 | 0.00 | 0.00 | 0.00 | 1076.0 | |
| 20260509132143 | 0 | 126 | 0.0 | 0.0 | 0.00 | 0.00 | 0.00 | 1076.0 | |
| 20260509131616 | 0 | 126 | 0.0 | 0.0 | 0.00 | 0.00 | 0.00 | 1076.0 | |
| 20260509131319 | 0 | 126 | 0.0 | 0.0 | 0.00 | 0.00 | 0.00 | 1076.0 | |
| 20260509130544 | 0 | 126 | 0.0 | 0.0 | 0.00 | 0.00 | 0.00 | 1076.1 | |
| 20260509130018 | 0 | 126 | 0.0 | 0.0 | 0.00 | 0.00 | 0.00 | 1076.1 | |
| 20260509125451 | 0 | 126 | 0.0 | 0.0 | 0.00 | 0.00 | 0.00 | 1076.1 | |
| 20260509124951 | 0 | 127 | 0.0 | 0.0 | 0.00 | 0.00 | 0.00 | 1076.1 | |
| 20260509124446 | 0 | 127 | 0.0 | 0.0 | 0.00 | 0.00 | 0.00 | 1076.1 | |
| 20260509123948 | 0 | 116 | 0.0 | 0.0 | 0.00 | 0.00 | 0.00 | 1076.2 | |
| 20260509123446 | 0 | 116 | 0.0 | 0.0 | 0.00 | 0.00 | 0.00 | 1076.1 | |
| 20260509123204 | 0 | 116 | 0.0 | 0.0 | 0.00 | 0.00 | 0.00 | 1076.1 | |
| 20260509122346 | 0 | 117 | 0.0 | 0.0 | 0.00 | 0.00 | 0.00 | 1076.1 | |
| 20260509121804 | 0 | 117 | 0.0 | 0.0 | 0.00 | 0.00 | 0.00 | 1076.2 | |
| 20260509121255 | 0 | 117 | 0.0 | 0.0 | 0.00 | 0.00 | 0.00 | 1076.1 | |
| 20260509120753 | 0 | 123 | 0.0 | 0.0 | 0.00 | 0.00 | 0.00 | 1076.1 | |
| 20260509120520 | 0 | 160 | 0.0 | 0.0 | 0.00 | 0.00 | 0.00 | 1076.1 | |
| 20260509115742 | 0 | 160 | 0.0 | 0.0 | 0.00 | 0.00 | 0.00 | 1076.1 | |
| 20260509115210 | 0 | 160 | 0.0 | 0.0 | 0.00 | 0.00 | 0.00 | 1076.0 | |
| 20260509114648 | 0 | 160 | 0.0 | 0.0 | 0.00 | 0.00 | 0.00 | 1076.0 | |
| 20260509114137 | 0 | 160 | 0.0 | 0.0 | 0.00 | 0.00 | 0.00 | 1076.0 | |
| 20260509113636 | 0 | 160 | 0.0 | 0.0 | 0.00 | 0.00 | 0.00 | 1076.0 | |
| 20260509113128 | 0 | 160 | 0.0 | 0.0 | 0.00 | 0.00 | 0.00 | 1076.0 | |
| 20260509112628 | 0 | 160 | 0.0 | 0.0 | 0.00 | 0.00 | 0.00 | 1076.0 | |
| 20260509112051 | 0 | 160 | 0.0 | 0.0 | 0.00 | 0.00 | 0.00 | 1076.0 | |
| 20260509111543 | 0 | 160 | 0.0 | 0.0 | 0.00 | 0.00 | 0.00 | 1076.0 | |
| 20260509111040 | 0 | 160 | 0.0 | 0.0 | 0.00 | 0.00 | 0.00 | 1076.0 | |
| 20260509110452 | 0 | 160 | 0.0 | 0.0 | 0.00 | 0.00 | 0.00 | 1076.0 | |
| 20260509105950 | 0 | 160 | 0.0 | 0.0 | 0.00 | 0.00 | 0.00 | 1075.9 | |
| 20260509105708 | 0 | 160 | 0.0 | 0.0 | 0.00 | 0.00 | 0.00 | 1075.9 |